Back to catalog

CZ-6A DEB

AlivePO
NORAD 61490·DEBRIS·🇨🇳 China

Launched Aug 6, 2024 from Taiyuan Satellite Launch Center

Loading…

Next Passes (next 24 hours)

TLE

FreshSource: Space-Track

Epoch: Sep 14, 2026, 00:14 UTC

1 61490U 24140AAY 26257.01018043  .00000871  00000-0  36719-3 0  9995
2 61490  88.9910 263.6901 0033901 270.7820  88.9488 14.24586560104254

Track CZ-6A DEB in real time with AllMySat

Download on the App Store